Theta_e
322 329 331 332 338 341 342 340 338 342 345 345 345 342 341 342 347 362 355 354 355 332 332 334 334 333 331 329 331 340 343 343 340 340 337 333 329 326 327 328 327 324 324 324 328 331 335 334 333
324 327 330 332 339 341 341 338 340 347 345 343 344 344 346 348 338 357 355 356 356 335 331 334 334 333 330 328 328 333 339 341 341 340 338 336 332 328 327 328 330 330 332 328 328 329 329 327 333
326 327 330 335 337 339 341 338 339 343 342 343 341 348 350 354 357 359 357 359 355 336 332 335 335 334 330 328 326 327 328 333 338 339 337 336 334 332 327 327 329 331 334 338 339 334 336 336 336
326 327 330 335 336 338 338 335 335 340 339 339 344 351 353 355 357 357 357 358 356 349 332 334 336 335 331 329 327 327 325 325 330 335 336 336 335 334 331 326 328 329 329 331 332 334 335 336 334
325 328 332 335 335 337 336 334 334 339 339 339 342 353 354 355 356 356 357 357 355 354 336 335 337 335 332 330 328 327 325 324 326 329 331 332 332 332 331 326 325 327 329 330 329 329 329 329 328
327 330 333 336 336 337 335 333 334 336 340 340 338 350 350 353 355 355 353 354 354 358 337 334 336 336 333 332 331 327 327 324 325 327 328 328 329 329 329 325 324 326 328 329 329 329 328 327 326
330 332 333 334 337 337 334 332 333 334 336 334 337 345 342 351 350 352 352 351 352 357 349 336 337 337 335 334 333 331 327 326 324 325 325 325 325 326 328 324 323 325 327 327 327 327 326 326 328
331 332 333 333 337 337 332 332 331 331 330 331 333 337 338 348 348 348 349 350 352 354 356 348 339 339 336 335 335 334 331 328 327 326 325 324 323 324 325 326 325 325 326 327 330 330 330 330 330
331 333 334 334 337 336 332 332 330 328 329 329 328 331 332 336 341 342 345 346 349 350 356 355 353 351 347 347 338 336 335 332 329 328 328 327 325 326 324 325 325 326 326 326 327 327 327 326 326
332 334 335 336 336 337 333 329 329 329 330 329 327 326 328 334 335 337 339 341 347 349 351 355 356 356 355 352 353 351 338 336 333 330 329 329 337 343 344 344 343 334 330 330 331 343 345 344 343
329 334 335 335 334 332 333 330 329 329 330 330 328 327 326 326 332 334 335 335 337 347 350 355 356 356 355 354 355 353 351 343 338 338 338 334 344 345 344 340 343 346 347 345 348 347 346 348 347
328 328 332 332 333 333 328 330 332 328 329 327 326 325 325 325 326 326 327 330 331 335 343 344 353 349 339 359 355 351 354 353 351 349 348 348 348 347 348 348 349 348 346 346 348 348 349 348 347
329 327 326 328 329 328 326 325 330 329 326 326 325 324 324 324 325 325 326 326 326 332 333 339 341 348 338 351 357 355 353 354 353 351 351 350 348 349 345 346 345 346 342 335 329 330 331 334 335
327 326 325 326 324 324 325 325 324 324 326 323 324 324 324 324 325 325 325 325 325 326 327 332 334 339 344 348 354 353 349 353 352 352 349 345 344 345 341 342 338 340 343 347 339 335 336 336 336
326 325 325 325 324 324 324 324 324 323 323 323 323 323 324 324 325 325 324 324 324 325 327 329 334 341 333 339 340 354 352 352 352 352 351 346 348 348 345 345 340 338 337 335 331 331 332 332 331
325 325 325 325 326 324 323 322 324 324 323 323 323 323 324 324 324 325 324 324 324 325 326 325 330 342 324 325 342 353 351 351 350 351 351 348 340 345 343 337 336 335 331 325 327 327 327 328 324
326 325 325 325 326 324 323 323 325 324 324 324 324 324 324 324 324 324 325 325 326 326 326 329 330 346 339 320 334 352 349 347 345 344 343 336 348 344 338 333 333 330 323 327 326 326 323 319 321
325 325 325 325 325 324 324 324 325 325 325 324 324 324 324 325 328 330 328 328 329 329 330 329 336 343 342 327 338 351 346 349 348 346 345 341 339 335 328 328 328 325 324 325 324 322 319 323 325
325 325 325 325 325 325 325 325 325 325 325 325 324 323 324 327 330 331 331 329 328 329 331 330 332 346 346 345 344 350 338 346 343 341 339 337 332 327 318 325 327 322 321 321 320 321 323 325 327
323 323 323 324 325 325 324 324 324 325 324 323 323 326 326 327 331 332 332 332 334 338 340 340 341 346 350 346 345 345 343 343 338 337 336 330 328 324 322 320 318 319 318 317 316 319 323 324 320
322 323 324 325 324 323 324 324 326 326 324 324 325 325 327 329 331 332 334 335 337 339 342 345 348 348 345 347 346 342 339 337 336 335 330 327 327 323 319 319 318 318 316 314 312 313 316 323 324
323 325 325 324 324 323 324 323 324 325 325 326 326 326 326 328 329 331 332 333 334 335 337 339 339 339 341 342 340 338 336 334 333 331 333 332 327 321 319 319 318 317 316 312 310 311 312 313 315
324 323 323 323 321 323 323 323 323 327 327 327 327 326 327 327 328 329 330 330 331 332 333 333 332 333 333 333 334 333 331 331 330 327 326 325 322 322 322 321 319 318 313 310 311 311 313 314 316
322 321 323 323 324 325 325 325 324 325 325 326 327 326 326 326 327 328 328 327 328 328 329 330 329 326 326 325 325 327 328 327 326 325 325 324 323 322 321 321 320 316 311 311 312 312 313 315 316
324 323 322 324 325 326 325 323 323 325 324 323 322 325 326 325 325 325 325 326 326 325 326 326 326 327 328 326 326 325 321 319 318 320 322 324 323 322 321 319 316 312 312 312 312 312 312 315 319
320 321 320 323 324 321 320 320 323 325 323 323 322 324 325 325 325 324 323 323 322 321 321 321 322 323 324 325 325 325 324 322 323 323 323 322 322 319 319 318 315 312 312 313 312 312 313 317 318
322 322 322 322 320 320 321 323 324 324 324 323 323 323 322 322 321 321 321 322 321 319 318 318 319 319 320 322 323 324 324 323 322 321 322 321 320 320 320 317 313 312 313 313 314 315 316 318 320
319 321 321 321 323 323 321 321 321 324 323 324 323 322 321 320 319 319 319 318 317 316 316 316 316 316 317 318 321 322 322 322 321 321 320 320 320 319 319 317 315 316 316 315 316 317 317 317 318
322 322 321 322 323 324 323 322 322 324 322 321 319 318 317 317 317 317 316 316 315 314 314 315 315 316 315 314 315 318 319 320 320 320 319 319 319 319 318 318 317 316 316 316 317 316 318 317 317
321 320 319 327 324 324 326 324 321 321 320 319 317 317 317 316 316 315 315 314 314 313 313 314 313 314 315 317 316 316 317 317 318 318 318 317 317 317 316 316 316 315 315 315 317 315 317 317 321
Wind_Speed
17 15 20 15 5 8 10 3 5 11 11 17 33 25 22 29 8 1 11 13 10 15 15 14 12 12 11 11 10 9 8 6 6 6 6 7 8 8 8 8 8 8 8 8 8 6 5 2 1
16 13 12 12 9 8 4 6 10 14 14 12 39 46 28 9 15 13 16 14 12 15 14 13 12 12 11 10 10 9 7 6 5 4 4 5 7 6 6 7 7 7 5 4 5 5 5 4 2
17 15 13 7 13 6 8 15 9 11 4 3 17 21 22 23 16 12 16 16 14 14 14 13 12 11 10 10 9 8 7 6 5 4 3 4 4 4 6 6 6 6 4 2 2 3 4 4 4
11 9 12 10 19 7 9 3 7 4 4 4 23 16 20 18 19 18 17 16 14 14 13 12 12 11 10 9 9 8 6 6 6 5 4 4 4 4 5 6 7 7 4 2 3 4 5 6 7
15 15 11 18 20 13 9 8 8 8 7 9 11 21 20 16 16 15 15 14 15 16 10 12 11 10 8 8 7 7 6 6 6 5 4 4 4 4 5 6 7 6 4 3 3 3 5 6 7
8 12 14 16 14 5 6 4 6 8 6 11 3 25 19 16 13 14 14 14 15 10 11 12 11 9 8 7 6 6 5 6 6 5 5 4 4 5 5 6 6 6 5 5 5 6 6 7 8
12 11 17 20 16 11 4 5 6 9 15 19 11 18 18 17 12 12 13 14 13 12 8 12 11 10 8 7 6 5 5 5 5 5 5 5 5 6 6 6 6 6 6 6 7 8 8 8 9
16 8 19 18 7 7 13 3 5 7 14 7 8 12 13 12 10 10 10 13 14 13 6 2 8 10 8 7 6 6 5 5 6 6 5 5 5 6 6 5 5 6 7 7 8 8 9 10 11
11 12 11 22 24 17 11 5 9 4 5 8 9 14 10 8 6 7 9 8 13 12 13 12 5 1 4 4 5 6 6 7 6 6 6 5 5 4 5 5 3 6 7 8 9 10 11 13 15
6 11 21 18 17 17 16 19 13 6 6 7 10 9 6 5 4 5 6 7 13 12 14 17 14 7 6 15 6 5 9 9 8 8 7 5 4 3 2 7 8 8 7 7 8 10 12 12 13
15 14 22 25 30 21 14 19 24 15 6 8 11 6 9 1 1 5 7 9 3 10 12 17 13 13 8 12 13 9 6 7 9 7 6 6 6 9 8 5 7 4 3 8 8 10 11 12 13
16 19 18 25 23 29 14 22 14 16 18 17 2 6 5 1 7 8 9 9 8 7 10 7 6 5 13 2 7 6 11 6 6 4 6 6 10 10 10 9 4 7 5 8 5 10 9 13 12
18 13 17 20 23 26 20 21 17 20 16 20 10 6 7 12 12 12 12 12 8 4 9 11 5 5 11 15 7 9 14 13 11 11 14 19 19 15 12 13 11 7 6 7 8 9 10 12 13
19 12 22 25 11 25 19 20 20 22 20 18 16 8 12 17 14 10 9 11 11 3 8 4 6 10 11 10 10 12 17 17 14 20 18 23 16 15 8 4 2 6 8 5 8 13 14 17 19
13 13 13 16 20 17 19 19 18 29 22 5 3 11 14 14 15 8 9 8 6 4 5 9 8 12 12 14 14 15 19 15 15 9 14 18 19 9 11 3 2 4 7 9 9 11 14 16 19
9 14 17 19 25 20 9 13 19 13 21 5 11 17 18 13 10 7 8 3 3 6 9 10 7 15 8 10 10 8 8 11 8 12 17 2 8 9 7 4 5 7 8 7 8 11 13 16 21
14 16 20 23 13 13 15 13 9 5 6 6 8 11 13 11 10 11 7 8 8 8 10 8 11 13 10 11 9 9 8 9 8 7 9 6 8 4 8 3 7 7 2 5 9 12 17 22 23
19 17 17 14 13 8 9 13 13 12 14 12 10 13 11 8 2 6 2 2 7 10 10 14 13 11 11 12 11 11 10 11 11 12 9 13 14 11 9 3 6 7 6 9 14 18 22 21 23
10 14 14 8 11 4 5 12 15 17 12 10 5 10 10 3 8 8 8 3 3 7 10 17 15 11 12 15 14 13 10 11 11 9 10 10 9 9 9 9 7 8 10 14 18 20 21 24 22
9 12 14 12 4 3 6 15 17 15 15 12 2 5 4 0 7 7 4 2 1 1 2 5 7 12 11 5 8 15 18 19 12 16 12 11 11 10 7 7 9 14 17 19 20 21 24 25 28
10 13 12 10 13 10 16 19 21 15 15 6 2 5 3 6 9 6 6 5 5 5 4 3 5 4 10 10 17 11 14 13 15 14 9 13 10 8 8 11 14 18 20 20 21 22 22 24 25
10 11 10 7 10 11 16 12 15 11 10 8 9 5 7 9 6 5 7 8 8 8 8 8 7 4 3 5 5 10 7 11 10 8 15 13 9 9 11 13 15 20 20 23 25 25 25 26 30
9 10 10 13 13 14 16 10 12 16 13 15 12 9 8 6 5 7 12 9 6 7 6 5 4 6 7 7 8 9 5 6 9 8 10 12 9 9 7 11 17 20 23 24 25 27 28 28 31
8 11 14 15 13 12 17 11 4 7 10 12 15 12 8 5 8 10 8 3 2 2 3 4 6 5 3 2 4 7 9 8 8 10 9 7 5 10 9 13 19 22 24 26 29 31 31 30 31
6 9 8 6 8 9 10 2 6 13 11 7 6 8 13 5 2 3 3 9 2 4 2 2 2 7 10 9 9 8 10 13 15 14 12 12 14 11 13 19 22 23 25 28 30 32 32 30 27
8 5 5 7 8 12 15 7 2 17 17 13 9 18 22 18 12 13 16 12 15 18 11 13 13 13 12 13 14 15 17 17 10 9 14 15 16 16 16 20 22 25 27 30 31 32 32 28 27
7 4 10 8 12 12 10 9 15 13 16 15 11 12 11 9 9 12 12 13 15 20 19 21 23 24 17 14 14 18 22 23 21 20 21 20 16 16 16 23 26 27 29 30 30 30 29 25 27
7 9 6 4 7 11 9 14 7 11 4 4 5 4 8 9 13 14 12 11 13 16 23 28 32 29 27 21 17 22 17 18 19 17 19 19 21 22 23 26 27 27 28 28 25 27 26 28 26
2 6 9 8 7 8 11 8 4 16 12 10 14 19 17 16 14 13 17 22 22 22 23 24 25 24 25 35 35 27 18 17 20 18 18 18 19 23 23 25 27 27 27 24 24 25 25 28 26
5 10 9 5 8 9 10 12 17 10 18 23 21 18 20 19 19 20 20 22 24 25 27 28 28 25 23 22 27 24 32 27 23 22 18 20 21 21 24 30 27 26 26 22 23 24 26 24 24
Wind_Direction
325 319 321 296 255 233 292 355 4 88 86 67 106 125 136 129 223 335 98 115 140 124 132 133 126 117 111 112 119 135 137 134 128 107 101 104 111 122 131 133 133 134 144 159 171 178 183 178 74
328 329 291 269 254 308 14 331 75 88 77 93 109 123 125 167 178 117 116 130 151 125 130 132 128 119 112 111 117 130 139 141 140 120 106 113 119 128 144 153 149 143 143 169 196 210 228 245 260
326 330 296 237 251 217 217 309 21 77 66 53 95 57 71 105 118 116 131 139 136 130 133 136 130 121 115 114 115 123 134 147 154 155 140 127 128 142 161 174 173 170 166 174 201 227 246 258 271
320 303 244 260 262 63 187 57 344 117 121 347 113 94 73 85 106 122 132 131 129 130 132 139 136 129 124 118 117 122 128 145 162 174 170 159 161 171 185 193 196 198 205 222 262 269 275 282 288
302 265 270 267 262 163 285 88 296 236 142 106 93 103 95 98 106 115 125 129 134 152 138 147 143 135 129 120 118 125 133 149 162 174 182 183 191 197 203 209 212 213 223 256 290 291 284 281 289
301 282 265 262 278 330 212 112 292 294 117 102 240 117 110 122 119 126 129 133 136 153 159 154 151 148 145 135 128 128 135 148 164 177 188 194 204 208 207 214 213 215 231 256 275 281 284 286 287
278 292 290 301 312 320 99 81 336 7 41 34 10 103 128 135 121 115 118 128 135 146 158 163 163 164 164 157 150 148 152 160 171 182 192 200 204 205 212 218 218 229 249 269 281 286 287 287 292
286 293 292 287 299 284 19 357 83 331 46 41 27 36 118 111 129 136 139 144 145 162 170 122 168 179 182 183 177 178 179 180 186 188 195 201 205 212 220 226 235 250 267 281 294 296 297 298 294
285 284 276 274 34 304 351 272 108 35 316 46 45 65 98 135 155 168 156 165 161 162 169 174 194 337 156 210 207 211 208 203 201 203 205 205 208 202 241 230 266 284 285 289 296 306 313 310 307
229 269 265 304 320 277 333 340 342 4 306 178 170 155 147 165 198 213 197 208 185 173 179 181 161 152 146 214 246 263 245 223 217 212 207 202 136 303 327 287 307 328 316 322 319 347 340 338 344
228 228 274 269 296 305 313 317 317 316 299 335 1 137 144 157 235 258 252 274 35 178 159 160 161 161 175 209 234 293 278 247 226 212 204 185 144 199 235 265 300 320 330 341 345 321 317 321 326
200 236 230 270 280 290 303 291 311 303 304 314 27 17 355 323 290 279 267 269 260 167 142 147 155 200 195 167 226 237 235 242 270 223 215 159 168 210 200 179 125 216 279 300 263 297 292 302 298
217 214 254 243 269 283 287 288 275 293 287 291 314 301 297 285 282 275 279 283 305 166 155 164 155 174 238 203 196 192 221 196 194 206 201 207 199 198 210 213 235 240 275 306 297 317 314 312 310
258 215 230 245 236 268 273 272 276 269 272 267 280 288 284 277 265 274 264 261 273 141 186 173 189 234 236 228 238 226 227 229 222 211 233 214 189 187 175 156 110 38 319 352 329 339 335 330 320
274 277 270 254 237 230 257 271 266 270 267 283 293 293 284 274 273 255 272 242 261 220 179 180 180 221 238 215 225 228 229 239 263 251 212 210 183 177 117 66 30 213 231 273 325 317 302 300 298
273 252 256 253 232 218 187 257 267 316 214 179 250 254 257 259 267 256 212 222 248 225 228 211 217 213 228 220 207 213 212 223 217 232 270 233 81 108 81 93 206 248 269 326 327 320 306 301 300
239 253 251 244 239 169 189 244 328 145 177 232 266 265 263 248 240 250 247 231 250 266 245 214 204 213 221 232 187 182 209 210 226 245 288 212 58 192 149 182 231 261 330 315 302 294 307 317 323
248 248 232 255 151 159 266 278 265 222 193 208 230 265 267 275 29 44 24 284 264 242 247 224 204 221 207 229 174 184 220 188 246 131 134 134 186 219 166 107 285 302 326 303 299 304 315 316 314
288 302 305 7 119 171 266 272 278 283 274 258 234 260 269 334 50 27 9 357 306 253 248 231 212 211 196 216 184 197 223 182 189 186 187 186 199 214 191 195 232 281 292 298 305 314 315 319 307
306 277 277 272 294 44 281 275 273 259 259 261 325 316 297 140 86 51 20 31 80 122 169 221 200 207 194 216 213 236 223 175 196 215 225 218 208 217 225 261 289 301 307 311 317 312 305 297 302
263 267 280 350 345 316 261 263 252 260 215 109 135 236 95 97 86 85 69 75 74 70 81 118 167 196 201 237 211 210 187 168 185 214 224 210 209 238 268 287 300 309 313 315 314 311 309 301 295
279 18 349 310 295 287 328 299 285 187 148 152 161 165 165 104 108 101 97 73 74 73 73 82 87 135 202 193 261 201 178 183 205 216 183 206 251 266 293 300 306 306 312 318 316 310 304 302 304
300 2 307 288 278 280 275 261 271 140 179 164 146 162 129 156 151 143 113 90 79 76 72 75 120 148 171 151 165 180 224 209 191 201 223 243 271 316 303 312 300 306 317 317 317 317 310 302 299
317 287 276 260 250 257 256 234 102 91 79 114 147 160 155 152 123 99 99 112 126 127 96 46 11 16 14 264 239 222 224 196 184 218 231 260 259 242 296 276 286 308 316 318 316 314 310 308 301
235 313 315 303 218 247 87 272 299 112 115 90 53 81 150 133 42 297 320 167 100 282 141 343 341 343 327 321 320 303 278 265 272 273 267 252 258 266 261 276 294 306 311 313 313 311 310 310 305
309 344 311 313 328 321 333 309 14 91 84 66 58 65 61 58 45 40 36 25 22 14 18 8 340 309 294 296 292 290 294 290 278 295 269 255 260 277 282 288 297 306 305 310 312 311 312 312 310
2 335 358 316 290 268 292 326 82 95 76 63 59 31 26 25 7 3 0 352 345 342 341 337 331 324 324 284 284 283 281 289 292 274 270 275 282 280 275 287 296 302 306 311 311 311 314 314 308
265 347 318 283 288 292 302 331 343 52 80 118 10 323 295 305 315 337 346 325 324 325 319 313 304 309 311 312 295 286 280 274 279 274 288 294 297 298 297 298 302 306 305 309 311 310 310 305 306
266 302 318 314 325 294 297 280 298 9 8 9 346 341 360 12 1 346 326 327 330 326 324 319 315 312 296 286 281 284 282 298 275 261 266 272 281 291 295 297 297 301 303 307 302 303 302 302 303
314 296 302 308 306 308 309 289 281 323 351 340 332 359 360 354 340 335 334 328 322 315 316 320 329 321 327 300 293 280 258 277 269 262 267 277 275 273 288 293 297 296 296 301 296 299 294 295 298